COSMOS 2251 DEB, 34317

Orbit data source: Space-Track

COSMOS 2251 DEB, 34317 is space debris in LEO originally from a launch on Wed, 16 Jun 1993 UTC launched from the Plesetsk Missile And Space Complex (PKMTR). The debris from Iridium 33, an American commercial communications satellite, has been tracked extensively since its accidental collision with the defunct Russian satellite Cosmos 2251 in 2009. This event, occurring at high speed in low Earth orbit (LEO), generated thousands of pieces of space debris, significantly increasing the risk of further collisions. The Iridium 33 debris cloud has impacted space traffic management and orbital debris mitigation strategies, making it a subject of ongoing study in space situational awareness.

Loading next visibility...
Identifier
34317, 1993-036NP
Orbit
LEO
Country
Flag of CISCIS
Related business
Manufacturer
Unknown
Mission
Spacecraft
Bus & Motor
Unknown
Mass
Unknown
Launch date (UTC)
1993-06-16 (33 years ago)
Launch vehicle
Unknown
Launch site
Plesetsk Missile And Space Complex (PKMTR)
Object type
Payload
Rocket body
Debris
Shape & HBR
Unknown shape, 0.1 m
Radar Cross Section
Small (<0.1 m²)

Expand to show TLE details & history
Last TLE update: 7 hours ago

TLE from 7 hours ago
0 COSMOS 2251 DEB
1 34317U 93036NP  26121.53967309  .00000245  00000-0  22231-3 0  9997
2 34317  73.9229 165.5629 0334853 128.9452  24.8566 13.65331025855270
Epoch: 2026-05-01T12:57Z
TLE epoch observation values (Epoch: 2026-05-01T12:57:07.754Z)
Latitude
23.53345°
Longitude
-75.36154°
Altitude
795.672 km
Speed
7.57 km/s
True Right ascension
22h 33m 33s
True Declination
23° 24' 31"
Sunlit
Object was in daylight at epoch
Visualization orbit readout
Latitude
Unknown
Longitude
Unknown
Altitude
Unknown
Speed
Unknown
Apparent Right ascension
Unknown
Apparent Declination
Unknown
Sunlit
N/A
Visualization observer readout
Local Sidereal Time
03:26:52
Azimuth
Unknown
Elevation
Unknown
Doppler factor
Unknown
Orbital elements
Apogee altitude
1,261.62 km
Perigee altitude
766.558 km
Semi-major axis
7,392.226 km
Eccentricity
0.03349
Inclination
73.9229°
RAAN
165.5629°
Arg. of periapsis
128.9452°
True anomaly
26.53286°
Mean anomaly
24.8566°
Eccentric anomaly
25.68825°
Mean motion
3.41492 °/min
Orbital period
105.42 mins
BSTAR
0.00022231
Loading maneuver chart data...
Computing Atmospheric mass density...

Documentation

Showing up to 5 results
|